Orbital Elements at Epoch 2459200.5 (2020-Dec-17.0) TDB
Reference: JPL 18 (heliocentric ecliptic J2000)
Element | Value | Uncertainty (1-sigma) | Units |
e | .08399770591629117 | 4.5893e-08 | |
a | 2.439345233608692 | 1.2085e-08 | au |
q | 2.234445830047722 | 1.1394e-07 | au |
i | 8.002553891805068 | 5.6817e-06 | deg |
node | 314.9994500994657 | 3.2355e-05 | deg |
peri | 223.7385067832477 | 4.4756e-05 | deg |
M | 137.1163766430891 | 3.188e-05 | deg |
tp | 2458670.476460350013 (2019-Jul-05.97646035) | 0.00012224 | TDB |
period | 1391.580487651491 3.81 | 1.0341e-05 2.831e-08 | d yr |
n | .258698654655295 | 1.9224e-09 | deg/d |
Q | 2.644244637169661 | 1.31e-08 | au |
|
| | Orbit Determination Parameters
Additional Information
|